PATHFINDER 1 (41787 NORAD) Tracking and Keplerian Element Data

This shows tracking and keplerian element data for the satellite.

Feedback or suggestion? Click here.




ElementValue
Catalog41787
NamePATHFINDER 1
Epoch Orbit11844
Epoch Day349.14798244
Epoch Year2018
RAAN48.4254
Inclination98.0936
Eccentricity0.0029393
Argument of Perigee243.7784
Mean Anonmoly116.0398
Mean Motion14.63638315
Decay Rate8.5E-07
L11 41787U 16059E 18349.14798244 .00000085 00000-0 25577-4 0 9995
L22 41787 98.0936 48.4254 0029393 243.7784 116.0398 14.63638315118448

Live tracking and technical data element details for PATHFINDER 1 (NORAD 41787). PATHFINDER 1 can be tracked NOW for your location showing map with azimuth and elevation plus other details from your city location.

Track the satellite on the map from your city or location and see movement details for azimuth, elevation, latitude, longitude, range, height, and movement on the map or in text.







IsCatalogInMostPopularTable: catalog: 41787, numindb: 93
Update: records affected: 1



GetName: 41787 PATHFINDER 1

Hit Count: updated at: Sun, 16 Dec 2018 03:40:48 GMT